LEO VANTAGE 1 (43113 NORAD) Tracking and Keplerian Element Data

This shows tracking and keplerian element data for the satellite.

Feedback or suggestion? Click here.




ElementValue
Catalog43113
NameLEO VANTAGE 1
Epoch Orbit2625
Epoch Day198.92716923
Epoch Year2018
RAAN259.8654
Inclination99.4791
Eccentricity0.0006266
Argument of Perigee82.9439
Mean Anonmoly277.242
Mean Motion13.69847871
Decay Rate-4.4E-07
L11 43113U 18004C 18198.92716923 -.00000044 00000-0 41880-7 0 9998
L22 43113 99.4791 259.8654 0006266 82.9439 277.2420 13.69847871 26250

Live tracking and technical data element details for LEO VANTAGE 1 (NORAD 43113). LEO VANTAGE 1 can be tracked NOW for your location showing map with azimuth and elevation plus other details from your city location.

Track the satellite on the map from your city or location and see movement details for azimuth, elevation, latitude, longitude, range, height, and movement on the map or in text.







IsCatalogInMostPopularTable: catalog: 43113, numindb: 75
Update: records affected: 1



GetName: 43113 LEO VANTAGE 1

Hit Count: updated at: Wed, 18 Jul 2018 20:29:31 GMT